Location: CNYAC Observatory
(43.2150°N, 74.9500°W)
Time: 16:34:36
(UTC-04:00)

Daily predictions for brighter satellites

Satellite Brightness Start Highest point End
(mag) Time Altitude Azimuth Time Altitude Azimuth Time Altitude Azimuth
ATLAS CENTAUR R/B 4.2 20:40:19 10° SSW 20:46:14 53° ESE 21:03:12 10° NE
Okean 1 Rocket 3.1 20:54:06 10° N 20:58:29 89° E 21:02:48 10° S
Shenzhou-11 Module 1.9 20:57:52 10° W 21:00:50 80° S 21:03:49 10° E
YAOGAN 6 3.6 20:57:44 10° S 21:01:19 48° W 21:04:54 10° NNW
Cosmos 1242 Rocket 2.9 21:01:28 10° N 21:05:02 49° ENE 21:08:33 10° SSE
Aureole 2 Rocket 3.9 21:05:39 10° NNE 21:07:44 17° ENE 21:09:43 10° ESE
CZ-4C R/B 4.3 21:03:55 10° NNW 21:09:31 26° NNE 21:15:42 10° E
Thor Agena Rocket 4.0 21:04:46 10° N 21:10:01 69° WNW 21:15:12 10° SSW
BREEZE-M R/B 2.7 21:07:10 10° WSW 21:11:55 77° NNW 21:14:42 10° ENE
Cosmos 2084 3.4 21:12:05 10° SSW 21:16:20 60° ESE 21:20:24 10° NE
Cosmos 2233 Rocket 4.0 21:14:43 10° S 21:20:52 84° E 21:27:07 10° N
Cosmos 1975 3.1 21:17:20 10° NNW 21:21:22 70° W 21:25:21 10° S
SL-08 RB Rocket 4.3 21:20:48 11° SE 21:24:51 41° ENE 21:29:09 10° N
SJ 16-02 3.0 21:21:44 10° N 21:25:07 21° ENE 21:28:17 11° ESE
Cosmos 2360 Rocket 2.9 21:22:19 10° NNW 21:27:38 41° ENE 21:32:17 13° SE
Meteor 1-19 Rocket 4.3 21:22:23 10° S 21:28:16 76° E 21:34:11 10° NNE
Resurs 01 Rocket 2.8 21:24:12 10° S 21:28:23 42° W 21:32:34 10° NNW
Spot 2 Rocket 4.0 21:24:13 10° S 21:29:11 62° WSW 21:34:12 10° NNW
Cosmos 1980 Rocket 4.0 21:25:19 10° NW 21:30:04 28° WSW 21:34:49 10° SSW
Cosmos 2219 Rocket 4.2 21:27:46 10° N 21:31:06 16° NE 21:34:24 10° E
deb Kosmos-1763 4.4 21:27:56 10° SSW 21:31:37 70° WNW 21:35:20 10° NNE
Cosmos 540 Rocket 4.4 21:27:21 10° SSE 21:31:40 27° E 21:36:00 10° NE
ATLAS CENTAUR R/B 4.1 21:29:56 10° WNW 21:32:48 16° WSW 21:35:44 10° SSW
Cosmos 468 Rocket 4.3 21:27:59 10° SSW 21:33:14 74° WNW 21:38:30 10° NNE
Cosmos 1937 Rocket 3.5 21:28:38 10° NNW 21:33:48 87° ENE 21:38:38 12° SSE
Cosmos 2298 Rocket 4.1 21:29:01 10° NNW 21:34:20 71° ENE 21:38:58 14° SSE
Cosmos 1666 3.4 21:30:51 10° NNW 21:34:40 55° W 21:38:26 10° S
BREEZE-M DEB (TANK) 3.6 21:32:54 10° W 21:34:43 16° SW 21:36:07 10° S
ERS-2 4.2 21:32:16 10° SSW 21:35:22 25° W 21:38:29 10° NW
Helios 1B rocket 4.2 21:33:58 10° NE 21:36:27 15° E 21:37:37 14° ESE
Cosmos 1763 Rocket 3.5 21:34:05 10° SSW 21:39:22 81° ESE 21:44:41 10° NNE
Meteor 2-9 Rocket 4.1 21:35:45 10° N 21:41:07 76° E 21:46:08 12° SSE
Cosmos 841 Rocket 3.5 21:39:48 10° S 21:44:58 63° ESE 21:50:11 10° NNE
USA 32 4.0 21:41:18 10° N 21:46:32 71° E 21:51:10 13° SSE
Cosmos 1743 3.8 21:43:32 10° NNW 21:47:10 42° W 21:50:46 10° SSW
MetOp-A 4.1 21:44:35 12° SSE 21:49:38 89° WSW 21:55:02 10° NNW
SPOT 5 3.5 21:49:27 19° SE 21:52:10 37° ENE 21:56:24 10° N
Cosmos 2333 Rocket 4.0 21:49:15 10° N 21:53:26 20° NE 21:57:36 10° E
Meteor 1-23 Rocket 4.4 21:48:45 12° SSE 21:53:39 50° E 21:59:00 10° NNE
Iridium 2 4.2 21:50:34 10° SSW 21:54:20 61° W 21:58:09 10° N
USA 234 3.3 21:49:33 10° NE 21:56:09 87° NW 22:02:44 10° SW
COSMOS 2428 3.9 21:51:50 10° N 21:56:51 31° NE 22:00:36 16° ESE
Terra 3.3 21:55:07 16° ESE 21:57:40 24° ENE 22:01:26 10° NNE
Lacrosse 5 rocket 1.6 22:00:45 10° NW 22:05:04 61° NE 22:07:25 24° ESE
Cosmos 1513 Rocket 4.4 21:59:23 10° S 22:05:21 72° E 22:11:31 10° NNE
Cosmos 1833 4.1 21:59:43 10° SSW 22:05:26 73° ESE 22:11:07 10° NNE
Meteor 2-4 Rocket 3.8 22:00:28 10° SSW 22:05:53 76° W 22:11:31 10° N
NOSS 3-2 (C) 4.4 22:01:20 10° WSW 22:07:09 51° NW 22:13:40 10° NNE
Cosmos 2034 Rocket 4.0 22:03:34 15° S 22:08:39 62° E 22:14:43 10° NNE
ERS-1 Rocket 3.0 22:07:46 19° SSE 22:11:23 85° WSW 22:16:27 10° NNW
Cosmos 1464 Rocket 4.0 22:05:49 10° S 22:12:11 89° E 22:18:36 10° N
Abrixas rocket 3.4 22:11:02 10° W 22:14:09 43° NNW 22:17:15 10° ENE
ISS -1.2 22:12:51 10° WNW 22:15:32 23° NNW 22:18:12 10° NE
Cosmos 1025 Rocket 3.7 22:14:39 28° SE 22:16:06 36° E 22:20:08 10° NNE
USA 245 3.3 22:16:24 27° S 22:18:14 75° WSW 22:22:37 10° NNW
Iridium 90 3.9 22:19:29 48° NE 22:19:29 48° NE 22:21:15 10° N
Cosmos 1515 3.7 22:17:00 19° SSW 22:19:39 80° W 22:23:31 10° N
Cosmos 1356 3.8 22:17:03 16° SSW 22:19:40 64° WNW 22:23:07 10° N
SPOT 1/Viking Rocket 3.6 22:16:49 25° SSE 22:19:50 71° ENE 22:24:59 10° N
ARGOS 3.9 22:15:18 12° S 22:20:08 48° W 22:25:23 10° NNW
Cosmos 2322 3.7 22:14:43 10° NNW 22:20:29 77° ENE 22:23:44 27° SSE
Cosmos 2227 Rocket 4.2 22:21:07 10° E 22:21:07 10° E 22:21:43 10° E
Cosmos 2322 Rocket 3.5 22:16:45 10° NW 22:21:45 34° WSW 22:26:19 12° SSW
H-2A R/B 2.5 22:19:42 16° S 22:23:30 53° W 22:28:26 10° NNW
Cosmos 1455 Rocket 3.9 22:19:47 10° NNW 22:23:58 45° W 22:27:13 16° SSW
Tiangong 2 0.9 22:21:07 10° W 22:24:16 85° S 22:25:10 44° E
Cosmos 2237 Rocket 4.0 22:21:23 10° N 22:25:34 20° NE 22:29:13 12° E
CENTAUR R/B 2.7 22:20:41 10° SW 22:26:40 76° NW 22:33:39 10° NE
Cosmos 1340 Rocket 4.0 22:25:45 10° SSW 22:29:36 43° WNW 22:33:31 10° N
SL-16 R/B 3.8 22:26:25 10° NW 22:31:05 27° WSW 22:35:43 10° SSW
Cosmos 1125 Rocket 3.5 22:26:00 10° NNW 22:31:16 72° ENE 22:33:42 32° SE
Meteor 1-29 3.4 22:28:00 10° NNE 22:31:20 41° E 22:31:30 41° ESE
Cosmos 1066 Rocket 4.4 22:30:18 30° SSE 22:32:34 48° E 22:37:47 10° NNE
Shenzhou-11 Module 3.3 22:34:01 10° W 22:36:03 28° SW 22:36:03 28° SW
DMSP B5D2-2 4.2 22:34:00 10° N 22:39:18 78° WNW 22:43:34 16° SSW
Aureole 2 Rocket 4.2 22:40:24 10° WNW 22:42:23 17° W 22:43:07 16° WSW
Helios 1A 3.4 22:41:57 30° SSW 22:43:44 56° W 22:47:51 10° NNW
Cosmos 836 Rocket 4.5 22:43:05 17° SSW 22:47:09 84° WNW 22:52:24 10° NNE
Cosmos 2237 4.4 22:44:37 10° NNW 22:50:19 65° WSW 22:52:57 32° S
Cosmos 2219 3.5 22:48:54 35° SSE 22:50:50 48° ESE 22:56:21 10° NE
Okean 2 3.6 22:50:54 32° SSW 22:52:44 68° W 22:56:55 10° N
Cosmos 1766 4.2 22:51:21 10° N 22:55:02 35° ENE 22:55:20 34° E
Cosmos 1892 Rocket 4.3 22:57:18 34° E 22:57:25 34° E 23:01:21 10° NNE
Nimbus 7 Rocket 4.4 22:52:52 10° NNE 22:58:45 65° ESE 23:01:14 35° S
CZ-4C R/B 2.9 22:51:55 10° NW 22:59:08 80° NE 23:03:19 32° SE
SJ 16-02 2.3 22:59:43 10° NNW 23:03:52 40° WSW 23:05:18 31° SW
Cosmos 1544 2.9 23:01:18 10° N 23:05:02 82° E 23:05:13 78° SE
Cosmos 1356 Rocket 3.8 23:03:27 35° SSW 23:05:05 64° W 23:09:23 10° N
Okean 1-7 Rocket 3.6 23:05:55 54° SSE 23:06:53 74° E 23:11:26 10° NNE
COSMOS 2455 3.8 23:07:46 27° ESE 23:07:46 27° ESE 23:12:41 10° NE
Cosmos 2360 Rocket 3.5 23:06:35 10° NW 23:11:28 31° WSW 23:14:04 21° SSW
Helios 1B rocket 3.3 23:08:00 10° N 23:11:59 46° WNW 23:13:58 25° SW
Cosmos 2228 3.5 23:08:30 10° N 23:12:38 45° ENE 23:12:59 44° E
CZ-2C R/B 2.9 23:07:49 10° NNE 23:13:23 57° E 23:14:47 45° SSE
Cosmos 2333 4.3 23:08:27 10° NNW 23:14:05 67° WSW 23:15:58 42° S
Cosmos 2219 Rocket 2.1 23:10:18 10° NNW 23:15:55 85° ENE 23:17:36 47° SSE
Cosmos 1726 Rocket 3.5 23:12:24 10° N 23:16:49 67° E 23:17:20 60° ESE
Cosmos 1092 Rocket 4.1 23:11:35 10° NNW 23:17:54 71° W 23:20:43 35° SSW
IGS 5A 4.3 23:21:30 36° SW 23:22:20 41° W 23:26:17 10° NNW
Cosmos 1842 3.6 23:31:21 54° ENE 23:31:21 54° ENE 23:34:46 10° NNE
Cosmos 2058 Rocket 3.1 23:26:43 10° N 23:31:13 67° E 23:31:33 64° ESE
Cosmos 1805 3.4 23:27:18 10° N 23:31:01 63° ENE 23:31:01 63° ENE
Iridium 4 Rocket 4.2 23:33:13 42° ESE 23:34:21 48° E 23:39:59 10° NNE
Terra 2.7 23:33:59 34° SW 23:35:11 40° W 23:39:40 10° NNW
BREEZE-M R/B 4.4 23:33:17 10° NW 23:35:19 20° N 23:35:35 19° N
Cosmos 1470 4.4 23:32:40 10° NNE 23:35:32 23° ENE 23:35:32 23° ENE
Cosmos 2333 Rocket 2.2 23:32:36 10° NNW 23:38:18 74° WSW 23:39:38 53° S
COSMOS 2428 3.4 23:35:53 10° NW 23:41:13 43° WSW 23:42:36 36° SW
SL-16 R/B 3.5 23:37:33 10° N 23:42:33 31° NE 23:44:52 23° E
CZ-2C R/B 3.7 23:41:20 40° SW 23:42:50 52° W 23:48:19 10° NNW
Lacrosse 5 rocket 3.4 23:40:54 10° WNW 23:43:05 18° WSW 23:43:05 18° WSW
Cosmos 489 Rocket 4.4 23:37:27 10° NNW 23:43:52 82° ENE 23:45:42 50° SSE
NOSS 0 Rocket 3.9 23:38:51 10° NNW 23:45:08 83° WSW 23:46:47 52° SSE
ALOS 2 3.7 23:46:19 32° ENE 23:46:38 32° ENE 23:50:32 10° N
Cosmos 2026 Rocket 4.1 23:41:22 10° NNW 23:47:28 66° W 23:49:21 44° SSW
Abrixas rocket 3.9 23:48:04 10° WNW 23:51:00 31° N 23:51:15 31° NNE
Cosmos 1655 Rocket 3.9 23:44:53 10° N 23:51:19 88° E 23:53:03 52° S
Cosmos 2279 Rocket 3.9 23:50:12 48° SSW 23:52:06 86° W 23:58:21 10° N
Cosmos 1980 3.6 23:46:44 10° NNW 23:52:25 88° ENE 23:53:30 60° SSE
Cosmos 1953 3.2 23:48:42 10° N 23:52:04 40° ENE 23:52:04 40° ENE
ISS -1.1 23:50:21 10° NW 23:52:49 19° N 23:55:03 11° NE
